(124306) = 2000 HF92 = 2001 QR64

Discovered at Socorro on 2001-08-16 by LINEAR.

Orbit

Orbit type: Main Belt

Note: WebGL enabled browser required.

epoch2024-03-31.0
epoch JD2460400.5
perihelion date2023-01-17.48928
perihelion JD2459961.98928
argument of perihelion (°)347.24841
ascending node (°)31.97503
inclination (°)3.52976
eccentricity0.1531132
perihelion distance (AU)1.9609474
Tisserand w.r.t. Jupiter3.6
ΔV w.r.t. Earth (km/sec)8.8
semimajor axis (AU)2.3154776
mean anomaly (°)122.66571
mean daily motion (°/day)0.27973250
aphelion distance (AU)2.670
period (years)3.52
P-vector [x]0.94402002
P-vector [y]0.30781510
P-vector [z]0.11864260
Q-vector [x]-0.32827315
Q-vector [y]0.84099891
Q-vector [z]0.43006695
absolute magnitude16.04
phase slope0.15
uncertainty0
referenceMPEC 2024-F28
observations used1051
oppositions19
arc length (days)11281
first opposition used1993
last opposition used2024
residual rms (arc-secs)0.69
perturbers coarse indicatorM-v
perturbers precise indicator003Ek
first observation date used1993-04-29.0
last observation date used2024-03-18.0
computer nameMPCLINUX
JD of orbit computation2456937.481208
perihelion JD uncertainty (days)7.6584E-05
argument of perihelion uncertainty (°)8.4458E-05
ascending node uncertainty (°)8.2673E-05
inclination uncertainty (°)6.1972E-06
eccentricity uncertainty 5.6443E-08
perihelion distance uncertainty (AU)1.2786E-07
Minimum Orbit Intersection Distances (in AU)
for orbit epoch: 2460400.5, reference: E2024-F28
Mercury1.61536
Venus1.23646
Earth0.96344
Mars0.52532
Jupiter2.78092
Saturn6.74663
Uranus15.8188
Neptune27.8354

Observations

1083 total observations over interval: 1993 04 29.27174 – 2024 03 18.123970
These data are available for download (format description).

Date (UT) J2000 RA J2000 Dec Magn Location Ref
1993 04 29.27174 14 16 56.76 -14 16 38.9 19.8 V 691 – Steward Observatory, Kitt Peak-Spacewatch MPS 34658
1993 04 29.29380 14 16 55.35 -14 16 33.4   691 – Steward Observatory, Kitt Peak-Spacewatch MPS 34658
1993 04 29.31850 14 16 53.74 -14 16 27.9   691 – Steward Observatory, Kitt Peak-Spacewatch MPS 34658
1998 12 17.41130 07 05 56.70 +28 14 01.0 18.9   704 – Lincoln Laboratory ETS, New Mexico MPS 34658
1998 12 17.43395 07 05 55.34 +28 14 03.1 19.0   704 – Lincoln Laboratory ETS, New Mexico MPS 34658
1998 12 17.45669 07 05 53.64 +28 14 07.3 19.1   704 – Lincoln Laboratory ETS, New Mexico MPS 34658
1998 12 17.47945 07 05 52.26 +28 14 12.9 19.3   704 – Lincoln Laboratory ETS, New Mexico MPS 34658
1998 12 17.50235 07 05 50.57 +28 14 17.3 19.0   704 – Lincoln Laboratory ETS, New Mexico MPS 34658
2000 04 29.24262 13 53 53.30 -11 51 30.5 19.5   704 – Lincoln Laboratory ETS, New Mexico MPS 17030
2000 04 29.25478 13 53 52.56 -11 51 25.7 19.2   704 – Lincoln Laboratory ETS, New Mexico MPS 17030
2000 04 29.26695 13 53 51.72 -11 51 23.7 19.2   704 – Lincoln Laboratory ETS, New Mexico MPS 17030
2000 04 29.27911 13 53 51.06 -11 51 20.1 19.3   704 – Lincoln Laboratory ETS, New Mexico MPS 17030
2000 05 07.21026 13 46 19.54 -11 19 59.2 18.9   704 – Lincoln Laboratory ETS, New Mexico MPS 17030
2000 05 07.22949 13 46 18.48 -11 19 54.5 19.4   704 – Lincoln Laboratory ETS, New Mexico MPS 17030
2000 05 07.23911 13 46 17.91 -11 19 51.4 19.1   704 – Lincoln Laboratory ETS, New Mexico MPS 17030
2000 05 07.24872 13 46 17.40 -11 19 49.8 19.0   704 – Lincoln Laboratory ETS, New Mexico MPS 17030
2001 07 22.40855 23 59 16.94 -05 13 40.4 19.0   704 – Lincoln Laboratory ETS, New Mexico MPS 34658
2001 07 22.43292 23 59 17.62 -05 13 38.1 19.7   704 – Lincoln Laboratory ETS, New Mexico MPS 34658
2001 07 22.44494 23 59 17.97 -05 13 35.4 19.2   704 – Lincoln Laboratory ETS, New Mexico MPS 34658
2001 07 29.46250 00 02 05.67 -05 02 19.3 18.6   644 – Palomar Mountain/NEAT MPS 34658
2001 07 29.47363 00 02 05.83 -05 02 18.6 18.6   644 – Palomar Mountain/NEAT MPS 34658
2001 07 29.48484 00 02 06.01 -05 02 17.9 18.8   644 – Palomar Mountain/NEAT MPS 34658
2001 08 16.34510 00 02 22.92 -05 10 54.2 18.7   704 – Lincoln Laboratory ETS, New Mexico MPS 33596
2001 08 16.35744 00 02 22.70 -05 10 56.1 18.7   704 – Lincoln Laboratory ETS, New Mexico MPS 33596
2001 08 16.36995 00 02 22.43 -05 10 58.1 18.9   704 – Lincoln Laboratory ETS, New Mexico MPS 33596
2001 08 16.38203 00 02 22.22 -05 10 58.8 19.1   704 – Lincoln Laboratory ETS, New Mexico MPS 33596
2001 08 16.39444 00 02 21.89 -05 11 00.7 19.1   704 – Lincoln Laboratory ETS, New Mexico MPS 33596
2001 08 20.35535 00 01 00.75 -05 19 56.4 18.7   704 – Lincoln Laboratory ETS, New Mexico MPS 33596
2001 08 20.36840 00 01 00.35 -05 19 58.7 18.3   704 – Lincoln Laboratory ETS, New Mexico MPS 33596
2001 08 20.38214 00 00 59.96 -05 20 00.4 18.9   704 – Lincoln Laboratory ETS, New Mexico MPS 33596
2001 08 23.36916 23 59 39.15 -05 28 12.0 18.0 R 699 – Lowell Observatory-LONEOS MPS 33596
2001 08 23.38483 23 59 38.60 -05 28 14.9   699 – Lowell Observatory-LONEOS MPS 33596
2001 08 23.40055 23 59 38.11 -05 28 17.8   699 – Lowell Observatory-LONEOS MPS 33596
2001 08 23.41626 23 59 37.59 -05 28 19.9   699 – Lowell Observatory-LONEOS MPS 33596
2001 08 25.31585 23 58 37.56 -05 34 07.2 18.5   704 – Lincoln Laboratory ETS, New Mexico MPS 33596
2001 08 25.33001 23 58 37.05 -05 34 10.1 18.3   704 – Lincoln Laboratory ETS, New Mexico MPS 33596
2001 08 25.34449 23 58 36.48 -05 34 13.2 18.4   704 – Lincoln Laboratory ETS, New Mexico MPS 33596
2001 08 25.35980 23 58 36.14 -05 34 14.8 19.5   704 – Lincoln Laboratory ETS, New Mexico MPS 33596
2001 09 07.38476 23 49 11.86 -06 22 12.1 17.7 R 699 – Lowell Observatory-LONEOS MPS 34658
2001 09 07.39739 23 49 11.15 -06 22 14.0   699 – Lowell Observatory-LONEOS MPS 34658
2001 09 07.40994 23 49 10.43 -06 22 17.0   699 – Lowell Observatory-LONEOS MPS 34658
2001 09 07.42240 23 49 09.75 -06 22 20.3   699 – Lowell Observatory-LONEOS MPS 34658
2001 09 12.33503 23 44 46.60 -06 41 53.3 17.8   704 – Lincoln Laboratory ETS, New Mexico MPS 34658
2001 09 12.34918 23 44 45.79 -06 41 56.3 17.9   704 – Lincoln Laboratory ETS, New Mexico MPS 34658
2001 09 12.36330 23 44 44.96 -06 41 59.9 18.6   704 – Lincoln Laboratory ETS, New Mexico MPS 34658
2001 09 12.37742 23 44 44.13 -06 42 03.0 18.3   704 – Lincoln Laboratory ETS, New Mexico MPS 34658
2001 09 12.39154 23 44 43.34 -06 42 05.9 18.1   704 – Lincoln Laboratory ETS, New Mexico MPS 34658
2001 09 19.16550 23 38 21.83 -07 07 29.9 17.3 R 699 – Lowell Observatory-LONEOS MPS 35977
2001 09 19.18425 23 38 20.70 -07 07 33.7   699 – Lowell Observatory-LONEOS MPS 35977
2001 09 19.20304 23 38 19.58 -07 07 38.3   699 – Lowell Observatory-LONEOS MPS 35977
2001 09 19.22190 23 38 18.50 -07 07 42.1   699 – Lowell Observatory-LONEOS MPS 35977
2001 09 19.25490 23 38 16.50 -07 07 49.0 17.8   704 – Lincoln Laboratory ETS, New Mexico MPS 35977
2001 09 19.26939 23 38 15.64 -07 07 51.9 17.9   704 – Lincoln Laboratory ETS, New Mexico MPS 35977
2001 09 19.28550 23 38 14.63 -07 07 57.6 18.9   704 – Lincoln Laboratory ETS, New Mexico MPS 35977
2001 09 19.30184 23 38 13.69 -07 07 58.6 17.9   704 – Lincoln Laboratory ETS, New Mexico MPS 35977
2001 09 19.31695 23 38 12.80 -07 08 01.8 17.9   704 – Lincoln Laboratory ETS, New Mexico MPS 35977
2001 09 21.25027 23 36 23.86 -07 14 33.2 18.3   704 – Lincoln Laboratory ETS, New Mexico MPS 35977
2001 09 21.25251 23 36 23.75 -07 14 33.7 17.7   704 – Lincoln Laboratory ETS, New Mexico MPS 35977
2001 09 21.26526 23 36 22.99 -07 14 35.9 18.3   704 – Lincoln Laboratory ETS, New Mexico MPS 35977
2001 09 21.26665 23 36 22.90 -07 14 36.5 17.7   704 – Lincoln Laboratory ETS, New Mexico MPS 35977
2001 09 21.28034 23 36 22.08 -07 14 38.7 18.2   704 – Lincoln Laboratory ETS, New Mexico MPS 35977
2001 09 21.28080 23 36 22.05 -07 14 39.6 17.8   704 – Lincoln Laboratory ETS, New Mexico MPS 35977
2001 09 21.29494 23 36 21.20 -07 14 42.4 17.5   704 – Lincoln Laboratory ETS, New Mexico MPS 35977
2001 09 21.29500 23 36 21.24 -07 14 41.9 18.3   704 – Lincoln Laboratory ETS, New Mexico MPS 35977
2001 09 21.30910 23 36 20.37 -07 14 45.2 17.8   704 – Lincoln Laboratory ETS, New Mexico MPS 35977
2001 09 21.30934 23 36 20.34 -07 14 43.7 18.8   704 – Lincoln Laboratory ETS, New Mexico MPS 35977
2001 09 24.27551 23 33 36.06 -07 23 51.9 17.8   644 – Palomar Mountain/NEAT MPS 40270
2001 09 24.29664 23 33 34.81 -07 23 55.5 17.7   644 – Palomar Mountain/NEAT MPS 40270
2001 09 24.31739 23 33 33.63 -07 23 59.0 17.3   644 – Palomar Mountain/NEAT MPS 40270
2001 10 11.18504 23 20 50.72 -07 48 26.1 18.6   704 – Lincoln Laboratory ETS, New Mexico MPS 37770
2001 10 11.20156 23 20 50.11 -07 48 26.0 18.6   704 – Lincoln Laboratory ETS, New Mexico MPS 37770
2001 10 11.21780 23 20 49.56 -07 48 26.5 18.7   704 – Lincoln Laboratory ETS, New Mexico MPS 37770
2001 10 11.23402 23 20 48.97 -07 48 25.9 18.5   704 – Lincoln Laboratory ETS, New Mexico MPS 37770
2001 10 11.25027 23 20 48.36 -07 48 25.8 18.6   704 – Lincoln Laboratory ETS, New Mexico MPS 37770
2001 10 13.16523 23 19 49.60 -07 47 43.4 18.1   704 – Lincoln Laboratory ETS, New Mexico MPS 37770
2001 10 13.18048 23 19 49.12 -07 47 43.4 18.5   704 – Lincoln Laboratory ETS, New Mexico MPS 37770
2001 10 13.19671 23 19 48.57 -07 47 42.9 18.6   704 – Lincoln Laboratory ETS, New Mexico MPS 37770
2001 10 13.21287 23 19 48.07 -07 47 41.9 18.8   704 – Lincoln Laboratory ETS, New Mexico MPS 37770
2001 10 13.22874 23 19 47.52 -07 47 41.5 19.0   704 – Lincoln Laboratory ETS, New Mexico MPS 37770
2001 10 17.15457 23 18 09.58 -07 43 47.3 18.3   644 – Palomar Mountain/NEAT MPS 39227
2001 10 17.17533 23 18 09.08 -07 43 45.5 18.1   644 – Palomar Mountain/NEAT MPS 39227
2001 10 17.19625 23 18 08.58 -07 43 43.8 18.4   644 – Palomar Mountain/NEAT MPS 39227
2001 10 23.10095 23 16 40.29 -07 31 43.7 18.5   704 – Lincoln Laboratory ETS, New Mexico MPS 39227
2001 10 23.11758 23 16 40.11 -07 31 40.7 18.5   704 – Lincoln Laboratory ETS, New Mexico MPS 39227
2001 10 23.13517 23 16 39.89 -07 31 37.3 18.5   704 – Lincoln Laboratory ETS, New Mexico MPS 39227
